Tracking 34094 objects as of 10-May-2026
HD Live streaming from Space Station
objects crossing your sky now

WESTFORD NEEDLES

Track WESTFORD NEEDLES now!
10-day predictions
WESTFORD NEEDLES is classified as:


NORAD ID: 2362
Int'l Code: 1963-014M
Perigee: 932.9 km
Apogee: 6,051.9 km
Inclination: 85.2 °
Period: 162.5 minutes
Semi major axis: 9863 km
RCS: 0.2493 m2 (medium)
Launch date: May 9, 1963
Source: United States (US)
Launch site: AIR FORCE WESTERN TEST RANGE (AFWTR)
Your satellite tracking list
Your tracking list is empty




NASA's NSSDC Master Catalog

Two Line Element Set (TLE):
1  2362U 63014M   26130.52069568  .00000632  00000-0  46497-2 0  9993
2  2362  85.1736 324.7537 2594981  72.3832 314.1818  8.86266028  3419
Source of the keplerian elements: AFSPC